Weather History for KPBH - November, 2012

Change the Weather History Date:

Monday, November 5, 2012

  Actual Average (WUND) Record (WUND)
Temperature  
Mean Temperature 30 °F -  
Max Temperature 42 °F - - (-1)
Min Temperature 19 °F - - (-1)
Degree Days  
Heating Degree Days 34    
Moisture  
Dew Point 25 °F    
Average Humidity 79    
Maximum Humidity 100    
Minimum Humidity 53    
Precipitation  
Precipitation 0.00 in - - ()
Sea Level Pressure  
Sea Level Pressure 30.16 in    
Wind  
Wind Speed 2 mph (SSE)    
Max Wind Speed 9 mph    
Max Gust Speed -    
Visibility 10 miles    
Events      
Averages and records for this station are not official NWS values.
T = Trace of Precipitation, MM = Missing Value Source: NWS Daily Summary

Daily Weather History Graph

Daily Weather History Graph

Search for Another Location

Airport or City:

Trip Planner

Search our weather history database for the weather conditions in past years. The results will help you decide how hot, cold, wet, or windy it might be!

Date:

Astronomy

Nov. 05, 2012 Rise Set
Actual Time 6:47 AM CST 4:41 PM CST
Civil Twilight 6:16 AM CST 5:13 PM CST
Nautical Twilight 5:41 AM CST 5:48 PM CST
Astronomical Twilight 5:06 AM CST 6:23 PM CST
Moon 10:20 PM CST (11/5) 12:07 PM CST (11/5)
Length of Visible Light 10h 56m
Length of Day
9h 54m
Waning Gibbous, 62% of the Moon is Illuminated
Nov 5
Waning Gibbous
Nov 6
Last Quarter
Nov 13
New
Nov 20
First Quarter
Nov 28
Full

Hourly Weather History & Observations

Time (CST) Temp. Windchill Dew Point Humidity Pressure Visibility Wind Dir Wind Speed Gust Speed Precip Events Conditions
12:15 AM 24.8 °F - 21.2 °F 86% 30.22 in 10.0 mi Calm Calm - N/A   Clear
12:35 AM 24.8 °F - 21.2 °F 86% 30.22 in 10.0 mi Calm Calm - N/A   Clear
12:55 AM 21.2 °F - 19.4 °F 93% 30.22 in 10.0 mi Calm Calm - N/A   Clear
1:15 AM 21.2 °F - 21.2 °F 100% 30.22 in 10.0 mi Calm Calm - N/A   Clear
1:35 AM 21.2 °F - 19.4 °F 93% 30.23 in 10.0 mi Calm Calm - N/A   Unknown
1:55 AM 21.2 °F - 19.4 °F 93% 30.23 in 10.0 mi Calm Calm - N/A   Unknown
2:15 AM 19.4 °F - 19.4 °F 100% 30.23 in 10.0 mi Calm Calm - N/A   Unknown
2:35 AM 21.2 °F 16.4 °F 21.2 °F 100% 30.23 in 10.0 mi NNE 3.5 mph - N/A   Unknown
2:55 AM 21.2 °F - 19.4 °F 93% 30.23 in 10.0 mi Calm Calm - N/A   Unknown
3:15 AM 21.2 °F 16.4 °F 19.4 °F 93% 30.23 in 10.0 mi NE 3.5 mph - N/A   Unknown
3:35 AM 19.4 °F - 19.4 °F 100% 30.23 in 10.0 mi Calm Calm - N/A   Unknown
3:55 AM 19.4 °F - 19.4 °F 100% 30.22 in 10.0 mi Calm Calm - N/A   Unknown
4:15 AM 19.4 °F 14.3 °F 17.6 °F 93% 30.22 in 10.0 mi ENE 3.5 mph - N/A   Unknown
4:35 AM 19.4 °F - 17.6 °F 93% 30.23 in 10.0 mi Calm Calm - N/A   Unknown
4:55 AM 21.2 °F - 21.2 °F 100% 30.23 in 10.0 mi Calm Calm - N/A   Clear
5:15 AM 21.2 °F - 19.4 °F 93% 30.23 in 10.0 mi Calm Calm - N/A   Clear
5:35 AM 19.4 °F - 19.4 °F 100% 30.23 in 10.0 mi Calm Calm - N/A   Clear
5:55 AM 19.4 °F - 19.4 °F 100% 30.23 in 10.0 mi Calm Calm - N/A   Clear
6:15 AM 19.4 °F - 19.4 °F 100% 30.23 in 10.0 mi Calm Calm - N/A   Clear
6:35 AM 19.4 °F - 19.4 °F 100% 30.23 in 10.0 mi Calm Calm - N/A   Clear
6:55 AM 19.4 °F - 19.4 °F 100% 30.23 in 10.0 mi Calm Calm - N/A   Clear
7:15 AM 21.2 °F - 19.4 °F 93% 30.23 in 10.0 mi Calm Calm - N/A   Clear
7:35 AM 21.2 °F - 21.2 °F 100% 30.23 in 10.0 mi Calm Calm - N/A   Clear
7:55 AM 24.8 °F - 23.0 °F 93% 30.23 in 10.0 mi Calm Calm - N/A   Clear
8:15 AM 26.6 °F - 24.8 °F 93% 30.23 in 10.0 mi Calm Calm - N/A   Unknown
8:35 AM 28.4 °F - 26.6 °F 93% 30.23 in 10.0 mi Calm Calm - N/A   Unknown
8:55 AM 30.2 °F - 26.6 °F 86% 30.23 in 10.0 mi Calm Calm - N/A   Unknown
9:15 AM 32.0 °F 26.4 °F 28.4 °F 87% 30.23 in 10.0 mi ESE 5.8 mph - N/A   Unknown
9:35 AM 33.8 °F 27.7 °F 28.4 °F 81% 30.23 in 10.0 mi SE 6.9 mph - N/A   Unknown
9:55 AM 33.8 °F 27.0 °F 28.4 °F 81% 30.23 in 10.0 mi ESE 8.1 mph - N/A   Clear
10:15 AM 35.6 °F 29.9 °F 26.6 °F 70% 30.23 in 10.0 mi SSE 6.9 mph - N/A   Clear
10:35 AM 35.6 °F 32.8 °F 26.6 °F 70% 30.23 in 10.0 mi SE 3.5 mph - N/A   Clear
10:55 AM 37.4 °F - 26.6 °F 65% 30.22 in 10.0 mi Calm Calm - N/A   Scattered Clouds
11:15 AM 37.4 °F - 26.6 °F 65% 30.22 in 10.0 mi Calm Calm - N/A   Clear
11:35 AM 37.4 °F - 26.6 °F 65% 30.21 in 10.0 mi Calm Calm - N/A   Clear
11:55 AM 37.4 °F - 26.6 °F 65% 30.21 in 10.0 mi Calm Calm - N/A   Clear
12:15 PM 37.4 °F - 26.6 °F 65% 30.20 in 10.0 mi Calm Calm - N/A   Clear
12:35 PM 39.2 °F 35.9 °F 26.6 °F 61% 30.18 in 10.0 mi ESE 4.6 mph - N/A   Clear
12:55 PM 39.2 °F 37.0 °F 26.6 °F 61% 30.18 in 10.0 mi SE 3.5 mph - N/A   Clear
1:15 PM 41.0 °F 38.0 °F 26.6 °F 57% 30.16 in 10.0 mi SSE 4.6 mph - N/A   Clear
1:35 PM 41.0 °F - 26.6 °F 57% 30.16 in 10.0 mi Calm Calm - N/A   Clear
1:55 PM 42.8 °F 41.1 °F 26.6 °F 53% 30.15 in 10.0 mi SSE 3.5 mph - N/A   Clear
2:15 PM 42.8 °F - 26.6 °F 53% 30.14 in 10.0 mi Calm Calm - N/A   Clear
2:35 PM 42.8 °F - 26.6 °F 53% 30.14 in 10.0 mi Calm Calm - N/A   Clear
2:55 PM 42.8 °F - 26.6 °F 53% 30.13 in 10.0 mi Calm Calm - N/A   Clear
3:15 PM 42.8 °F 41.1 °F 26.6 °F 53% 30.13 in 10.0 mi SW 3.5 mph - N/A   Clear
3:35 PM 42.8 °F 41.1 °F 26.6 °F 53% 30.12 in 10.0 mi SW 3.5 mph - N/A   Clear
3:55 PM 42.8 °F - 26.6 °F 53% 30.12 in 10.0 mi Calm Calm - N/A   Clear
4:15 PM 41.0 °F 39.0 °F 26.6 °F 57% 30.11 in 10.0 mi South 3.5 mph - N/A   Clear
4:35 PM 39.2 °F 37.0 °F 26.6 °F 61% 30.11 in 10.0 mi South 3.5 mph - N/A   Clear
4:55 PM 37.4 °F - 26.6 °F 65% 30.11 in 10.0 mi Calm Calm - N/A   Clear
5:15 PM 35.6 °F - 26.6 °F 70% 30.11 in 10.0 mi Calm Calm - N/A   Clear
5:35 PM 32.0 °F - 24.8 °F 75% 30.12 in 10.0 mi Calm Calm - N/A   Clear
5:55 PM 30.2 °F 26.7 °F 24.8 °F 80% 30.11 in 10.0 mi East 3.5 mph - N/A   Clear
6:15 PM 30.2 °F - 26.6 °F 86% 30.11 in 10.0 mi Calm Calm - N/A   Clear
6:35 PM 33.8 °F 29.6 °F 26.6 °F 75% 30.11 in 10.0 mi SE 4.6 mph - N/A   Clear
6:55 PM 32.0 °F 28.7 °F 26.6 °F 80% 30.10 in 10.0 mi SE 3.5 mph - N/A   Clear
7:15 PM 30.2 °F - 26.6 °F 86% 30.10 in 10.0 mi Calm Calm - N/A   Clear
7:35 PM 30.2 °F 26.7 °F 26.6 °F 86% 30.09 in 10.0 mi SE 3.5 mph - N/A   Mostly Cloudy
7:55 PM 32.0 °F 28.7 °F 28.4 °F 87% 30.07 in 10.0 mi SE 3.5 mph - N/A   Overcast
8:15 PM 33.8 °F 27.7 °F 28.4 °F 81% 30.07 in 10.0 mi SSE 6.9 mph - N/A   Overcast
8:35 PM 33.8 °F 27.7 °F 28.4 °F 81% 30.06 in 10.0 mi South 6.9 mph - N/A   Overcast
8:55 PM 33.8 °F 28.6 °F 28.4 °F 81% 30.06 in 10.0 mi South 5.8 mph - N/A   Overcast
9:15 PM 33.8 °F 27.7 °F 28.4 °F 81% 30.05 in 10.0 mi SSE 6.9 mph - N/A   Overcast
9:35 PM 35.6 °F 29.9 °F 28.4 °F 75% 30.05 in 10.0 mi South 6.9 mph - N/A   Overcast
9:55 PM 35.6 °F 31.7 °F 26.6 °F 70% 30.04 in 10.0 mi South 4.6 mph - N/A   Overcast
10:15 PM 35.6 °F 29.9 °F 26.6 °F 70% 30.04 in 10.0 mi South 6.9 mph - N/A   Overcast
10:35 PM 35.6 °F 30.7 °F 26.6 °F 70% 30.03 in 10.0 mi South 5.8 mph - N/A   Overcast
10:55 PM 35.6 °F 29.9 °F 26.6 °F 70% 30.02 in 10.0 mi South 6.9 mph - N/A   Overcast
11:15 PM 35.6 °F 29.9 °F 26.6 °F 70% 30.01 in 10.0 mi South 6.9 mph - N/A   Overcast
11:35 PM 35.6 °F 28.6 °F 26.6 °F 70% 30.01 in 10.0 mi South 9.2 mph - N/A   Overcast
11:55 PM 35.6 °F 29.2 °F 26.6 °F 70% 30.01 in 10.0 mi South 8.1 mph - N/A   Overcast